Fernie, Canada 16 day weather forecast

Slopes altitude range 1065 m - 1925m

Number of lifts: 9 Pistes: -1km

In some cases the lift and piste totals shown are for the ski domain (e.g. Three Valleys) rather than individual resort (e.g. Courchevel)

Overview

The 16 day weather forecast is fully updated 4 times every day.

    • Tue 24 APR 2018
    • Tue 24
    • -3C -2C
    • Wed 25 APR 2018
    • Wed 25
    • -2C 0C
    • Thu 26 APR 2018
    • Thu 26
    • -1C 1C
    • Fri 27 APR 2018
    • Fri 27
    • 2C 5C
    • Sat 28 APR 2018
    • Sat 28
    • 6C 8C
    • Sun 29 APR 2018
    • Sun 29
    • 3C 5C
    • Mon 30 APR 2018
    • Mon 30
    • -1C 0C
    • Tue 01 MAY 2018
    • Tue 01
    • -2C -1C
    • Wed 02 MAY 2018
    • Wed 02
    • -3C -1C
    • Thu 03 MAY 2018
    • Thu 03
    • -8C -6C
    • Fri 04 MAY 2018
    • Fri 04
    • -4C 9C
    • Sat 05 MAY 2018
    • Sat 05
    • -1C 13C
    • Sun 06 MAY 2018
    • Sun 06
    • 2C 18C
    • Mon 07 MAY 2018
    • Mon 07
    • 5C 19C
    • Tue 08 MAY 2018
    • Tue 08
    • 1C 6C
    • Wed 09 MAY 2018
    • Wed 09
    • -4C 11C

Date:

Time Type 0°C level Temp Chill Snow Cloud Speed Gust Dir Press
3:00 1872m 0°C 0_1 0cm 0% 1mph 1mph 1029mB
6:00 1369m -2°C -2_2 0cm 0% 2mph 3mph 1032mB
9:00 1214m -3°C -3_2 0cm 0% 2mph 2mph 1033mB
12:00 1134m -2°C -2_2 0cm 0% 2mph 2mph 1033mB
15:00 2999m 3°C 3_1 0cm 0% 1mph 2mph 1030mB
18:00 3078m 9°C 9_4 0cm 28% 4mph 6mph 1025mB
21:00 3221m 9°C 9_5 0cm 98% 5mph 8mph 1022mB
0:00 3375m 9°C 9_5 0cm 99% 5mph 9mph 1020mB
3:00 3367m 2°C 2_1 0cm 99% 1mph 2mph 1021mB
6:00 3376m 0°C 0_2 0cm 100% 2mph 2mph 1022mB
9:00 1480m -1°C -1_2 0cm 100% 2mph 2mph 1021mB
12:00 1358m 0°C 0_2 0cm 100% 2mph 3mph 1021mB
15:00 2632m 4°C 4_2 0cm 100% 2mph 3mph 1020mB
18:00 2487m 12°C 12_2 0cm 82% 2mph 3mph 1019mB
21:00 2616m 11°C 11_3 0cm 6% 3mph 4mph 1020mB
0:00 2570m 10°C 10_4 0cm 36% 4mph 4mph 1020mB
3:00 2646m 3°C 3_4 0cm 1% 4mph 4mph 1022mB
6:00 2728m 0°C 0_4 0cm 1% 4mph 4mph 1025mB
9:00 1542m -1°C -1_3 0cm 7% 3mph 4mph 1026mB
12:00 1468m 1°C 1_3 0cm 17% 3mph 3mph 1026mB
15:00 3342m 7°C 7_1 0cm 79% 1mph 2mph 1023mB
18:00 3615m 14°C 14_3 0cm 85% 3mph 4mph 1020mB
21:00 3726m 13°C 13_4 0cm 83% 4mph 5mph 1017mB
0:00 3763m 13°C 13_4 0cm 84% 4mph 4mph 1015mB
3:00 3808m 7°C 7_1 0cm 94% 1mph 1mph 1015mB
6:00 3868m 5°C 5_2 0cm 93% 2mph 3mph 1016mB
9:00 3866m 3°C 3_3 0cm 76% 3mph 3mph 1015mB
12:00 3822m 5°C 5_3 0cm 62% 3mph 3mph 1015mB
15:00 3778m 10°C 10_1 0cm 87% 1mph 2mph 1013mB
18:00 3778m 19°C 19_2 0cm 90% 2mph 2mph 1010mB
21:00 3711m 18°C 18_3 0cm 94% 3mph 4mph 1007mB
0:00 3658m 18°C 18_4 0cm 93% 4mph 4mph 1004mB
3:00 3611m 11°C 11_2 0cm 96% 2mph 2mph 1004mB
6:00 3602m 8°C 8_4 0cm 98% 4mph 4mph 1004mB
9:00 3571m 6°C 6_4 0cm 99% 4mph 4mph 1002mB
12:00 3653m 8°C 8_4 0cm 100% 4mph 4mph 1001mB
15:00 3490m 12°C 12_1 0cm 100% 1mph 2mph 999mB
18:00 3348m 17°C 17_5 0cm 100% 5mph 5mph 997mB
21:00 3027m 13°C 13_7 0cm 96% 7mph 9mph 996mB
0:00 2845m 11°C 11_7 0cm 83% 7mph 10mph 995mB
3:00 2648m 7°C 7_4 0cm 99% 4mph 8mph 996mB
6:00 2252m 5°C 5_5 0cm 100% 5mph 8mph 996mB
9:00 2154m 3°C 3_4 0cm 100% 4mph 6mph 996mB
12:00 2070m 5°C 5_4 0cm 100% 4mph 6mph 997mB
15:00 1904m 3°C 3_5 8cm 100% 5mph 9mph 999mB
18:00 1783m 3°C 3_5 13cm 100% 5mph 9mph 1003mB
21:00 1833m 2°C 2_5 2cm 100% 5mph 7mph 1005mB
0:00 1853m 2°C 2_5 4cm 100% 5mph 8mph 1007mB
3:00 1808m 1°C 1_4 2cm 100% 4mph 7mph 1010mB
6:00 1730m 0°C 0_2 3cm 100% 2mph 3mph 1012mB
9:00 1629m 0°C 0_3 1cm 100% 3mph 5mph 1013mB
12:00 1473m 0°C 0_3 2cm 100% 3mph 5mph 1015mB
15:00 1647m 0°C 0_3 1cm 100% 3mph 5mph 1014mB
18:00 1902m 3°C 3_4 1cm 100% 4mph 6mph 1012mB
21:00 2058m 3°C 3_5 0cm 100% 5mph 9mph 1009mB
0:00 2118m 3°C 3_5 0cm 100% 5mph 11mph 1008mB
3:00 2060m 2°C 2_4 0cm 99% 4mph 5mph 1010mB
6:00 1932m 1°C 1_3 1cm 99% 3mph 3mph 1012mB
9:00 1589m -2°C -2_2 0cm 67% 2mph 3mph 1013mB
12:00 1640m -1°C -1_1 1cm 70% 1mph 1mph 1016mB
15:00 1939m 2°C 2_1 1cm 63% 1mph 2mph 1017mB
18:00 2082m 5°C 5_3 2cm 65% 3mph 4mph 1016mB
21:00 2250m 4°C 4_4 1cm 86% 4mph 8mph 1014mB
0:00 2394m 4°C 4_4 0cm 69% 4mph 9mph 1012mB
3:00 2236m 1°C 1_3 0cm 29% 3mph 4mph 1013mB
6:00 1606m -2°C -2_3 0cm 14% 3mph 4mph 1015mB
9:00 1495m -2°C -2_3 0cm 2% 3mph 4mph 1015mB
12:00 1437m -1°C -1_4 0cm 12% 4mph 4mph 1014mB
15:00 1893m 1°C 1_6 0cm 66% 6mph 8mph 1011mB
18:00 2154m 4°C 4_7 0cm 78% 7mph 13mph 1006mB
21:00 2448m 4°C 4_9 0cm 85% 9mph 26mph 1004mB
0:00 2457m 3°C 3_19 3cm 57% 19mph 32mph 1008mB
3:00 1730m -1°C -1_5 2cm 35% 5mph 11mph 1016mB
6:00 915m -6°C -6_4 0cm 19% 4mph 6mph 1021mB
9:00 670m -8°C -8_3 0cm 0% 3mph 4mph 1024mB
12:00 615m -6°C -6_4 0cm 1% 4mph 4mph 1027mB
15:00 1695m -1°C -1_3 0cm 0% 3mph 5mph 1025mB
18:00 1904m 3°C 3_5 0cm 0% 5mph 8mph 1024mB
Morning 0.458333mm 0 1409m -4°C -4_4 0cm 29% 4mph 5mph 1024mB
Afternoon 0.197917mm 0 2498m 9°C 9_5 0cm 57% 5mph 7mph 1022mB
Morning 0.00520833mm 0 2991m 1°C 1_3 0cm 45% 3mph 4mph 1023mB
Afternoon 0.0572917mm 0 3029m 13°C 13_6 0cm 43% 6mph 7mph 1020mB
Morning 0.817708mm 0 3601m 5°C 5_4 0cm 22% 4mph 5mph 1020mB
Afternoon 0.489583mm 0 3716m 18°C 18_5 0cm 66% 5mph 6mph 1018mB
Morning 1.14062mm 0 3787m 8°C 8_4 0cm 78% 4mph 5mph 1016mB
Afternoon 0.28125mm 0 3709m 19°C 19_12 0cm 29% 12mph 24mph 1010mB
Morning 0.776042mm 0 2998m 6°C 6_9 0cm 30% 9mph 18mph 1011mB
Afternoon 0.385417mm 0.3125 2289m 6°C 6_8 3cm 32% 8mph 11mph 1017mB
Morning 0.135417mm 0.125 1617m -2°C -2_4 0cm 43% 4mph 6mph 1020mB
Afternoon 0.385417mm 0 2837m 11°C 11_8 0cm 86% 8mph 12mph 1006mB

16 day outlook at a glance

Forecast issued: 24/04/2018 05:25:44

Chat

Your comments and questions. In a resort? Let us know what it's like!


Characters left 250

For terms and conditions see Readers Comments on the Cookie and privacy policy page.